Regional Weather Roundup
Issued by NWS

Home | Current Version | Previous Version | Graphics & Text | Print | Product List | Glossary On
Versions: 1 2 3 4 5 6 7 8 9 10 11 12 13 14 15 16 17 18 19 20 21 22 23 24 25 26 27 28 29 30 31 32 33 34 35 36 37 38 39 40 41 42 43 44 45 46 47 48 49 50
112
ASUS44 KJAN 182110
RWRMS

MISSISSIPPI HOURLY WEATHER ROUNDUP
NATIONAL WEATHER SERVICE JACKSON MS
300 PM CST THU DEC 18 2014

NOTE: "FAIR: INDICATES FEW OR NO CLOUDS BELOW 12,000 FEET WITH NO
SIGNIFICANT WEATHER AND/OR OBSTRUCTIONS TO VISIBILITY.

MSZ001>002-007>008-010>013-018>021-025>028-034>036-182200-
NORTHWEST MISSISSIPPI

CITY           SKY/WX    TMP DP  RH WIND       PRES   REMARKS
CLARKSDALE     CLOUDY    46  41  81 CALM      30.18R
CLEVELAND      CLOUDY    49  44  83 CALM      30.16S
GREENWOOD      CLOUDY    52  42  69 SE3       30.16S
GREENVILLE     CLOUDY    51  44  77 SE5       30.15S
GRENADA        FAIR      46  39  76 CALM      30.16F
OLIVE BRANCH   CLOUDY    43  37  81 CALM      30.18S
OXFORD         CLOUDY    46  34  61 CALM      30.18R
TUNICA         MOCLDY    45  37  76 N5        30.18S
$$

MSZ003>006-009-014>017-022>024-029>033-037>039-182200-
NORTHEAST MISSISSIPPI

CITY           SKY/WX    TMP DP  RH WIND       PRES   REMARKS
COLUMBUS AFB   CLOUDY    49  32  52 CALM      30.18R
CORINTH        CLOUDY    46  34  61 CALM      30.16F
GOLDN TRIANGLE CLOUDY    52  30  43 N5        30.16S
STARKVILLE     CLOUDY    50  34  53 CALM      30.16S
TUPELO         CLOUDY    47  34  60 E3        30.17S
$$

MSZ040-058-182200-
CENTRAL MISSISSIPPI

CITY           SKY/WX    TMP DP  RH WIND       PRES   REMARKS
JACKSON INTL   PTSUNNY   50  45  83 E5        30.15F
JACKSON HAWKNS PTSUNNY   50  44  80 E5        30.15S
MERIDIAN KEY   CLOUDY    52  39  61 CALM      30.15S
MERIDIAN NAS   CLOUDY    52  34  50 NW3       30.16R
RAYMOND        CLOUDY    52  46  82 E6        30.14F
VICKSBURG      CLOUDY    54  44  69 SE6       30.14S
$$

MSZ059>079-182200-
SOUTH MISSISSIPPI

CITY           SKY/WX    TMP DP  RH WIND       PRES   REMARKS
HATTIESBURG    CLOUDY    62  43  49 N5        30.13S
MCCOMB         LGT RAIN  50  48  93 NE8       30.13R FOG
NATCHEZ        CLOUDY    48  46  93 E7        30.13S
PINE BELT      CLOUDY    52  45  76 N10       30.16R
$$

MSZ080>082-182200-
COASTAL MISSISSIPPI

CITY           SKY/WX    TMP DP  RH WIND       PRES   REMARKS
BAY ST LOUIS   MOSUNNY   61  46  59 E6        30.12S
BILOXI         MOSUNNY   61  48  62 SE5       30.12S
PASCAGOULA     SUNNY     65  46  50 SE7       30.11S
GULFPORT       MOSUNNY   61  47  59 S5        30.11F
$$



USA.gov is the U.S. government's official web portal to all federal, state and local government web resources and services.